Photometre #944[NE_1.6] Marseille_ATMO AOT

File : 20221127_944.hum

27/11/2022,07:45:38,TEMP=7.7,BA=5.60,STAT.A=11.0,ExtBa=12.96
27/11/2022,07:50:11,TEMP=8.0,BA=5.60,STAT.A=11.0,ExtBa=12.94
27/11/2022,07:55:35,TEMP=8.2,BA=5.60,STAT.A=11.0,ExtBa=12.94
27/11/2022,08:02:06,TEMP=8.4,BA=5.60,STAT.A=11.0,ExtBa=12.93
27/11/2022,08:10:03,TEMP=8.7,BA=5.60,STAT.A=11.0,ExtBa=12.95
27/11/2022,08:20:13,TEMP=9.1,BA=5.60,STAT.A=11.0,ExtBa=12.99
27/11/2022,08:26:20,TEMP=9.4,BA=5.60,STAT.F,ExtBa=12.88
27/11/2022,08:41:19,TEMP=10.7,BA=5.60,STAT.D=11.0,ExtBa=12.75
27/11/2022,08:56:19,TEMP=12.0,BA=5.60,STAT.D=11.5,ExtBa=13.04
27/11/2022,09:11:19,TEMP=12.9,BA=5.60,STAT.D=11.5,ExtBa=13.06
27/11/2022,09:26:21,TEMP=12.9,BA=5.60,STAT.F,ExtBa=13.02
27/11/2022,09:41:19,TEMP=12.9,BA=5.60,STAT.D=11.5,ExtBa=13.09
27/11/2022,09:56:19,TEMP=13.3,BA=5.60,STAT.D=11.5,ExtBa=13.09
27/11/2022,10:11:20,TEMP=13.8,BA=5.60,STAT.D=11.5,ExtBa=13.10
27/11/2022,10:26:21,TEMP=14.0,BA=5.60,STAT.F,ExtBa=13.07
27/11/2022,10:41:19,TEMP=14.2,BA=5.60,STAT.D=11.5,ExtBa=13.15
27/11/2022,10:56:19,TEMP=14.4,BA=5.60,STAT.D=11.5,ExtBa=13.14
27/11/2022,11:11:19,TEMP=14.8,BA=5.60,STAT.D=11.5,ExtBa=12.99
27/11/2022,11:26:21,TEMP=15.4,BA=5.60,STAT.F,ExtBa=12.96
27/11/2022,11:41:20,TEMP=16.0,BA=5.60,STAT.D=12.5,ExtBa=13.07
27/11/2022,11:56:20,TEMP=16.4,BA=5.60,STAT.D=12.5,ExtBa=13.02
27/11/2022,12:11:19,TEMP=16.7,BA=5.60,STAT.D=12.5,ExtBa=13.06
27/11/2022,12:26:21,TEMP=16.9,BA=5.60,STAT.F,ExtBa=12.99
27/11/2022,12:41:19,TEMP=17.0,BA=5.60,STAT.D=12.5,ExtBa=13.07
27/11/2022,12:56:19,TEMP=17.0,BA=5.60,STAT.D=12.5,ExtBa=13.05
27/11/2022,13:11:19,TEMP=17.1,BA=5.60,STAT.D=12.5,ExtBa=13.02
27/11/2022,13:26:21,TEMP=17.7,BA=5.60,STAT.F,ExtBa=12.95
27/11/2022,13:41:19,TEMP=18.7,BA=5.60,STAT.D=12.5,ExtBa=12.73
27/11/2022,13:56:19,TEMP=18.8,BA=5.60,STAT.D=12.5,ExtBa=12.95
27/11/2022,14:11:19,TEMP=18.3,BA=5.60,STAT.D=12.5,ExtBa=13.00
27/11/2022,14:26:20,TEMP=17.1,BA=5.60,STAT.F,ExtBa=12.95
27/11/2022,14:32:28,TEMP=16.9,BA=5.60,STAT.A=12.5,ExtBa=12.96
27/11/2022,14:42:34,TEMP=16.6,BA=5.60,STAT.A=12.5,ExtBa=12.91
27/11/2022,14:50:34,TEMP=16.4,BA=5.60,STAT.A=12.5,ExtBa=12.94
27/11/2022,14:57:03,TEMP=16.1,BA=5.60,STAT.A=12.5,ExtBa=12.88
27/11/2022,15:02:27,TEMP=15.9,BA=5.60,STAT.A=12.5,ExtBa=12.92
27/11/2022,15:07:00,TEMP=15.7,BA=5.60,STAT.A=12.5,ExtBa=12.88